Canberra, Australia

5:09 PM AEDT on February 27, 2017 (GMT +1100)
Canberra

Weather History for YSCB - January, 2014

Change the Weather History Date:

Monday, January 6, 2014

  Actual Average Record
Temperature  
Mean Temperature 64 °F -  
Max Temperature 75 °F 82 °F - ()
Min Temperature 53 °F 55 °F - ()
Growing Degree Days 14 (Base 50)    
Moisture  
Dew Point 33 °F    
Average Humidity 27    
Maximum Humidity 47    
Minimum Humidity 10    
Precipitation  
Precipitation 0.00 in 0.07 in - ()
Sea Level Pressure  
Sea Level Pressure 29.82 in    
Wind  
Wind Speed 13 mph ()    
Max Wind Speed 21 mph    
Max Gust Speed 32 mph    
Visibility 6.2 miles    
Events      
T = Trace of Precipitation, MM = Missing Value Source: Averaged Metar Reports

Daily Weather History Graph

Daily Weather History Graph

Search for Another Location

Airport or City:

Trip Planner

Search our weather history database for the weather conditions in past years. The results will help you decide how hot, cold, wet, or windy it might be!

Date:

Astronomy

Jan. 06, 2014 Rise Set
Actual Time 5:55 AM AEDT 8:21 PM AEDT
Civil Twilight 5:26 AM AEDT 8:51 PM AEDT
Nautical Twilight 4:49 AM AEDT 9:27 PM AEDT
Astronomical Twilight 4:09 AM AEDT 10:07 PM AEDT
Moon 11:11 AM AEDT (1/6) 11:34 PM AEDT (1/6)
Length of Visible Light 15h 25m
Length of Day
14h 26m
Waxing Crescent, 28% of the Moon is Illuminated
Jan 6
Waxing Crescent
Jan 8
First Quarter
Jan 16
Full
Jan 24
Last Quarter
Jan 31
New

Hourly Weather History & Observations

Time (AEDT) Temp. Dew Point Humidity Pressure Visibility Wind Dir Wind Speed Gust Speed Precip Events Conditions
12:00 AM 69 °F 38 °F 21% 29.70 in - West 12.7 mph - -  
12:00 AM 68.0 °F 37.4 °F 33% 29.77 in 6.2 mi West 12.7 mph - N/A   Unknown
12:30 AM 68.0 °F 37.4 °F 33% 29.74 in 6.2 mi West 8.1 mph - N/A   Unknown
1:00 AM 66.2 °F 37.4 °F 35% 29.74 in 6.2 mi West 6.9 mph - N/A   Unknown
1:30 AM 64.4 °F 39.2 °F 40% 29.74 in 6.2 mi West 6.9 mph - N/A   Unknown
2:00 AM 64 °F 38 °F 26% 29.68 in - West 5.8 mph - -  
2:00 AM 64.4 °F 37.4 °F 37% 29.74 in 6.2 mi West 5.8 mph - N/A   Unknown
2:30 AM 64.4 °F 37.4 °F 37% 29.74 in 6.2 mi West 8.1 mph - N/A   Unknown
3:00 AM 61 °F 38 °F 31% 29.68 in - WNW 9.2 mph - -  
3:00 AM 60.8 °F 39.2 °F 45% 29.74 in 6.2 mi WNW 9.2 mph - N/A   Unknown
3:29 AM 62.6 °F 41.0 °F 45% 29.74 in 6.2 mi WNW 17.3 mph - N/A   Unknown
3:30 AM 62.6 °F 41.0 °F 45% 29.74 in 6.2 mi WNW 17.3 mph - N/A   Unknown
4:00 AM 62.6 °F 41.0 °F 45% 29.74 in 6.2 mi West 19.6 mph - N/A   Unknown
4:34 AM 62.6 °F 37.4 °F 39% 29.74 in - West 17.3 mph 32.2 mph N/A   Clear
5:00 AM 62 °F 33 °F 22% 29.69 in - West 18.4 mph - -  
5:00 AM 62.6 °F 33.8 °F 34% 29.74 in - West 18.4 mph - N/A   Clear
5:30 AM 60.8 °F 26.6 °F 27% 29.77 in - West 16.1 mph - N/A   Clear
6:00 AM 56 °F 30 °F 25% 29.73 in - NE 8.1 mph - -  
6:00 AM 55.4 °F 30.2 °F 38% 29.80 in - NE 8.1 mph - N/A   Clear
6:30 AM 55.4 °F 33.8 °F 44% 29.80 in - North 12.7 mph - N/A   Clear
7:00 AM 59.0 °F 32.0 °F 36% 29.83 in - NW 15.0 mph - N/A   Clear
7:30 AM 59.0 °F 32.0 °F 36% 29.83 in - WNW 18.4 mph - N/A   Clear
8:00 AM 60 °F 33 °F 24% 29.77 in - WNW 18.4 mph - -  
8:00 AM 60.8 °F 32.0 °F 34% 29.83 in - WNW 18.4 mph - N/A   Clear
8:30 AM 60.8 °F 33.8 °F 36% 29.86 in 6.2 mi NW 17.3 mph - N/A   Partly Cloudy
9:00 AM 63 °F 33 °F 21% 29.79 in - WNW 16.1 mph - -  
9:00 AM 62.6 °F 33.8 °F 34% 29.86 in 6.2 mi WNW 16.1 mph - N/A   Partly Cloudy
9:30 AM 62.6 °F 32.0 °F 32% 29.86 in - WNW 13.8 mph - N/A   Clear
10:00 AM 66.2 °F 33.8 °F 30% 29.86 in - WNW 16.1 mph - N/A   Clear
10:30 AM 68.0 °F 33.8 °F 28% 29.83 in - West 16.1 mph - N/A   Clear
11:00 AM 69 °F 30 °F 13% 29.78 in - West 19.6 mph - -  
11:00 AM 69.8 °F 30.2 °F 23% 29.83 in - West 19.6 mph - N/A   Clear
11:30 AM 69.8 °F 28.4 °F 21% 29.86 in - WNW 17.3 mph - N/A   Clear
12:00 PM 71 °F 29 °F 11% 29.79 in - West 19.6 mph - -  
12:00 PM 71.6 °F 28.4 °F 20% 29.86 in - West 19.6 mph - N/A   Clear
12:30 PM 71.6 °F 30.2 °F 22% 29.83 in - WNW 17.3 mph - N/A   Clear
1:00 PM 73.4 °F 30.2 °F 20% 29.83 in - West 19.6 mph - N/A   Clear
1:30 PM 75.2 °F 30.2 °F 19% 29.83 in - WNW 19.6 mph - N/A   Clear
2:00 PM 74 °F 29 °F 10% 29.77 in - WNW 20.7 mph - -  
2:00 PM 75.2 °F 30.2 °F 19% 29.83 in - WNW 20.7 mph - N/A   Clear
2:30 PM 75.2 °F 30.2 °F 19% 29.83 in - WNW 18.4 mph 29.9 mph N/A   Clear
3:00 PM 74 °F 29 °F 10% 29.77 in - WNW 18.4 mph - -  
3:00 PM 75.2 °F 30.2 °F 19% 29.83 in - WNW 18.4 mph - N/A   Clear
3:06 PM 75.2 °F 28.4 °F 18% 29.83 in - WNW 18.4 mph 29.9 mph N/A   Clear
3:30 PM 75.2 °F 28.4 °F 18% 29.83 in - WNW 20.7 mph - N/A   Clear
4:30 PM 75.2 °F 28.4 °F 18% 29.86 in - WNW 20.7 mph - N/A   Clear
5:00 PM 75 °F 29 °F 10% 29.79 in - WNW 19.6 mph - -  
5:00 PM 75.2 °F 28.4 °F 18% 29.86 in - WNW 19.6 mph - N/A   Clear
5:30 PM 75.2 °F 30.2 °F 19% 29.86 in - WNW 17.3 mph - N/A   Clear
6:00 PM 74 °F 29 °F 10% 29.80 in - WNW 19.6 mph - -  
6:00 PM 73.4 °F 28.4 °F 19% 29.86 in - WNW 19.6 mph - N/A   Clear
6:30 PM 73.4 °F 30.2 °F 20% 29.89 in - West 17.3 mph - N/A   Clear
7:00 PM 71.6 °F 30.2 °F 22% 29.89 in - West 17.3 mph - N/A   Clear
7:30 PM 69.8 °F 32.0 °F 25% 29.92 in - WNW 17.3 mph - N/A   Clear
8:00 PM 69 °F 32 °F 15% 29.86 in - West 13.8 mph - -  
8:00 PM 68.0 °F 32.0 °F 26% 29.92 in - West 13.8 mph - N/A   Clear
8:30 PM 66.2 °F 33.8 °F 30% 29.95 in - WNW 11.5 mph - N/A   Clear
9:00 PM 65 °F 33 °F 19% 29.89 in - WNW 11.5 mph - -  
9:00 PM 66.2 °F 33.8 °F 30% 29.95 in 6.2 mi WNW 11.5 mph - N/A   Unknown
9:30 PM 64.4 °F 33.8 °F 32% 29.95 in 6.2 mi West 11.5 mph - N/A   Unknown
10:00 PM 62.6 °F 33.8 °F 34% 29.98 in 6.2 mi WNW 9.2 mph - N/A   Unknown
10:30 PM 59.0 °F 32.0 °F 36% 29.98 in 6.2 mi North 8.1 mph - N/A   Unknown
11:00 PM 56 °F 33 °F 30% 29.94 in - West 5.8 mph - -  
11:00 PM 57.2 °F 33.8 °F 41% 30.01 in 6.2 mi West 5.8 mph - N/A   Unknown
11:30 PM 53.6 °F 33.8 °F 47% 30.01 in 6.2 mi SSE 8.1 mph - N/A   Unknown